STARLINK-5714, 55614

Orbit data source: Space-Track

STARLINK-5714, 55614 is a payload satellite owned by SpaceX/Seattle (US) in LEO that was launched on Sun, 12 Feb 2023 UTC via an FALCON 9 launch vehicle from the Air Force Eastern Test Range (AFETR). Payload-class satellites include a variety of spacecraft equipped with specific instruments for various scientific and technological missions. These include communications satellites like Starlink; space stations such as the ISS; scientific satellites like the Hubble; Earth observation satellites from companies like Planet Labs, Umbra, and HawkEye 360; GPS; miniature CubeSats for education and research; and military/defense satellites.

Loading next visibility...
Identifier
55614, 2023-020AX
Orbit
LEO
Country
Flag of USUS
Related business
Manufacturer
SpaceX/Seattle
Mission
Operational Commercial Communications
Bus & Motor
STARLINK, Unknown motor
Mass
305 kg wet, ~290 kg dry
Launch date (UTC)
2023-02-12 (3 years ago)
Launch vehicle
FALCON 9
Launch site
Air Force Eastern Test Range (AFETR)
Object type
Payload
Rocket body
Debris
Shape & HBR
Box + 1 Pan, 10.1 m
Radar Cross Section
13.562 m², Large (>1 m²)

Expand to show TLE details & history
Last TLE update: 7 hours ago

TLE from 7 hours ago
0 STARLINK-5714
1 55614U 23020AX  26062.16668981  .00045033  00000-0  30117-2 0  9998
2 55614  43.0008  14.0824 0000570 288.6166 220.1499 15.06265842  5816
Epoch: 2026-03-03T04:00Z
TLE epoch observation values (Epoch: 2026-03-03T04:00:01.999Z)
Latitude
20.77874°
Longitude
-50.74527°
Altitude
547.342 km
Speed
7.592 km/s
True Right ascension
11h 20m 51s
True Declination
20° 39' 41"
Sunlit
Object was in full shadow at epoch
Visualization orbit readout
Latitude
Unknown
Longitude
Unknown
Altitude
Unknown
Speed
Unknown
Apparent Right ascension
Unknown
Apparent Declination
Unknown
Sunlit
N/A
Visualization observer readout
Local Sidereal Time
14:47:27
Azimuth
Unknown
Elevation
Unknown
Doppler factor
Unknown
Orbital elements
Apogee altitude
549.945 km
Perigee altitude
549.155 km
Semi-major axis
6,927.687 km
Eccentricity
0.00006
Inclination
43.0008°
RAAN
14.0824°
Arg. of periapsis
288.6166°
True anomaly
220.14569°
Mean anomaly
220.1499°
Eccentric anomaly
220.14779°
Mean motion
3.7641 °/min
Orbital period
95.64 mins
BSTAR
0.0030117
Loading maneuver chart data...
Computing Atmospheric mass density...
Loading historical data...
Loading historical data...
Loading historical data...
Loading historical data...
Loading historical data...
Loading historical data...
Loading historical data...

Documentation

Showing up to 5 results
|